| time (UTC) | temp F | wind direction | speed MPH | gust MPH | rain 1hr in | rain 24hr in | rain mn in | humidity % | barometer mb |
| 20260508173839 | 60 | 329 | 3.0 | 3.0 | 0.00 | 0.01 | 0.01 | 47 | 1015.8 |
| 20260508173336 | 60 | 186 | 4.0 | 4.0 | 0.00 | 0.01 | 0.01 | 46 | 1015.9 |
| 20260508172832 | 60 | 288 | 4.0 | 6.0 | 0.00 | 0.01 | 0.01 | 46 | 1015.8 |
| 20260508172329 | 62 | 164 | 2.0 | 3.0 | 0.00 | 0.01 | 0.01 | 46 | 1015.8 |
| 20260508171825 | 60 | 330 | 3.0 | 3.0 | 0.00 | 0.01 | 0.01 | 47 | 1015.7 |
| 20260508171322 | 60 | 204 | 6.0 | 8.0 | 0.00 | 0.01 | 0.01 | 45 | 1015.9 |
| 20260508170819 | 60 | 306 | 3.0 | 6.0 | 0.00 | 0.01 | 0.01 | 45 | 1016.0 |
| 20260508170317 | 60 | 182 | 4.0 | 7.0 | 0.00 | 0.01 | 0.01 | 45 | 1015.8 |
| 20260508165813 | 60 | 266 | 2.0 | 2.0 | 0.00 | 0.01 | 0.01 | 46 | 1015.8 |
| 20260508165311 | 60 | 263 | 6.0 | 7.0 | 0.00 | 0.01 | 0.01 | 45 | 1015.8 |
| 20260508164806 | 61 | 192 | 2.0 | 3.0 | 0.00 | 0.01 | 0.01 | 46 | 1015.8 |
| 20260508164303 | 60 | 298 | 6.0 | 8.0 | 0.00 | 0.01 | 0.01 | 45 | 1015.9 |
| 20260508163801 | 60 | 222 | 7.0 | 8.0 | 0.00 | 0.01 | 0.01 | 45 | 1016.2 |
| 20260508163259 | 60 | 199 | 4.0 | 4.0 | 0.00 | 0.01 | 0.01 | 45 | 1016.0 |
| 20260508162754 | 60 | 210 | 7.0 | 9.0 | 0.00 | 0.01 | 0.01 | 43 | 1016.2 |
| 20260508162251 | 60 | 165 | 5.0 | 7.0 | 0.00 | 0.01 | 0.01 | 45 | 1016.2 |
| 20260508161748 | 60 | 233 | 3.0 | 4.0 | 0.00 | 0.01 | 0.01 | 45 | 1016.3 |
| 20260508161245 | 59 | 224 | 3.0 | 6.0 | 0.00 | 0.01 | 0.01 | 46 | 1016.4 |
| 20260508160743 | 59 | 208 | 2.0 | 3.0 | 0.00 | 0.01 | 0.01 | 46 | 1016.3 |
| 20260508160241 | 59 | 235 | 5.0 | 7.0 | 0.00 | 0.01 | 0.01 | 46 | 1016.3 |
| 20260508155737 | 60 | 298 | 3.0 | 4.0 | 0.00 | 0.01 | 0.01 | 46 | 1016.5 |
| 20260508155235 | 59 | 220 | 3.0 | 3.0 | 0.00 | 0.01 | 0.01 | 44 | 1016.5 |
| 20260508154732 | 59 | 280 | 4.0 | 4.0 | 0.00 | 0.01 | 0.01 | 44 | 1016.7 |
| 20260508154229 | 60 | 274 | 4.0 | 7.0 | 0.00 | 0.01 | 0.01 | 45 | 1016.3 |
| 20260508153725 | 60 | 143 | 3.0 | 4.0 | 0.00 | 0.01 | 0.01 | 44 | 1016.5 |
| 20260508153222 | 60 | 232 | 2.0 | 2.0 | 0.00 | 0.01 | 0.01 | 42 | 1016.5 |
| 20260508152719 | 61 | 239 | 9.0 | 10.0 | 0.00 | 0.01 | 0.01 | 43 | 1016.4 |
| 20260508152215 | 60 | 186 | 1.0 | 1.0 | 0.00 | 0.01 | 0.01 | 44 | 1016.4 |
| 20260508151712 | 59 | 6 | 2.0 | 4.0 | 0.00 | 0.01 | 0.01 | 45 | 1016.6 |
| 20260508151208 | 60 | 311 | 5.0 | 7.0 | 0.00 | 0.01 | 0.01 | 44 | 1016.5 |
| 20260508150705 | 59 | 319 | 4.0 | 4.0 | 0.00 | 0.01 | 0.01 | 46 | 1016.4 |
| 20260508150202 | 58 | 265 | 3.0 | 3.0 | 0.00 | 0.01 | 0.01 | 47 | 1016.9 |
| 20260508145658 | 58 | 245 | 4.0 | 6.0 | 0.00 | 0.01 | 0.01 | 45 | 1016.7 |
| 20260508145154 | 58 | 304 | 3.0 | 3.0 | 0.00 | 0.01 | 0.01 | 45 | 1016.7 |
| 20260508144652 | 58 | 65 | 3.0 | 6.0 | 0.00 | 0.01 | 0.01 | 45 | 1016.9 |
| 20260508144149 | 59 | 314 | 3.0 | 6.0 | 0.00 | 0.01 | 0.01 | 47 | 1016.8 |
| 20260508143646 | 58 | 204 | 2.0 | 3.0 | 0.00 | 0.01 | 0.01 | 51 | 1016.8 |
| 20260508143143 | 57 | 177 | 0.0 | 0.0 | 0.00 | 0.01 | 0.01 | 54 | 1017.0 |
| 20260508142639 | 56 | 346 | 3.0 | 4.0 | 0.00 | 0.01 | 0.01 | 52 | 1016.9 |
| 20260508142136 | 58 | 245 | 6.0 | 7.0 | 0.00 | 0.01 | 0.01 | 51 | 1017.1 |
| 20260508141633 | 57 | 152 | 3.0 | 3.0 | 0.00 | 0.01 | 0.01 | 52 | 1017.0 |
| 20260508141131 | 57 | 279 | 3.0 | 4.0 | 0.00 | 0.01 | 0.01 | 53 | 1016.6 |
| 20260508140628 | 56 | 201 | 2.0 | 3.0 | 0.00 | 0.01 | 0.01 | 55 | 1017.0 |
| 20260508140125 | 57 | 313 | 1.0 | 2.0 | 0.00 | 0.01 | 0.01 | 54 | 1016.8 |
| 20260508135620 | 56 | 231 | 2.0 | 2.0 | 0.00 | 0.01 | 0.01 | 52 | 1016.8 |
| 20260508135116 | 56 | 306 | 5.0 | 7.0 | 0.00 | 0.01 | 0.01 | 52 | 1016.9 |
| 20260508134613 | 56 | 348 | 2.0 | 3.0 | 0.00 | 0.01 | 0.01 | 56 | 1017.0 |
| 20260508134110 | 55 | 337 | 3.0 | 4.0 | 0.00 | 0.01 | 0.01 | 58 | 1016.9 |
| 20260508133607 | 55 | 180 | 3.0 | 4.0 | 0.00 | 0.01 | 0.01 | 56 | 1016.8 |
| 20260508133105 | 55 | 76 | 2.0 | 4.0 | 0.00 | 0.01 | 0.01 | 59 | 1016.9 |
| 20260508132602 | 55 | 353 | 2.0 | 3.0 | 0.00 | 0.01 | 0.01 | 59 | 1016.9 |
| 20260508132059 | 54 | 37 | 2.0 | 3.0 | 0.00 | 0.01 | 0.01 | 60 | 1017.1 |
| 20260508131554 | 54 | 276 | 1.0 | 1.0 | 0.00 | 0.01 | 0.01 | 61 | 1016.9 |
| 20260508131051 | 54 | 303 | 4.0 | 6.0 | 0.00 | 0.01 | 0.01 | 62 | 1016.9 |
| 20260508130548 | 54 | 7 | 3.0 | 4.0 | 0.00 | 0.01 | 0.01 | 62 | 1016.8 |
| 20260508130044 | 54 | 177 | 2.0 | 3.0 | 0.00 | 0.01 | 0.01 | 64 | 1016.8 |
| 20260508125540 | 53 | 276 | 2.0 | 3.0 | 0.00 | 0.01 | 0.01 | 64 | 1017.2 |
| 20260508125038 | 53 | 73 | 1.0 | 1.0 | 0.00 | 0.01 | 0.01 | 65 | 1017.2 |
| 20260508124536 | 53 | 269 | 6.0 | 9.0 | 0.00 | 0.01 | 0.01 | 66 | 1017.1 |
| 20260508124033 | 53 | 239 | 1.0 | 2.0 | 0.00 | 0.01 | 0.01 | 65 | 1017.3 |
| 20260508123531 | 52 | 189 | 2.0 | 2.0 | 0.00 | 0.01 | 0.01 | 67 | 1017.1 |
| 20260508123027 | 52 | 155 | 2.0 | 3.0 | 0.00 | 0.01 | 0.01 | 67 | 1017.3 |
| 20260508122524 | 51 | 354 | 2.0 | 2.0 | 0.00 | 0.01 | 0.01 | 68 | 1017.5 |
| 20260508122021 | 51 | 232 | 5.0 | 7.0 | 0.00 | 0.01 | 0.01 | 69 | 1017.4 |
| 20260508121519 | 51 | 206 | 3.0 | 4.0 | 0.00 | 0.01 | 0.01 | 70 | 1017.2 |
| 20260508121017 | 51 | 151 | 5.0 | 7.0 | 0.00 | 0.01 | 0.01 | 69 | 1017.2 |
| 20260508120514 | 51 | 258 | 3.0 | 4.0 | 0.00 | 0.01 | 0.01 | 69 | 1017.1 |
| 20260508120013 | 51 | 98 | 2.0 | 2.0 | 0.00 | 0.01 | 0.01 | 70 | 1017.1 |
| 20260508115510 | 51 | 20 | 4.0 | 6.0 | 0.00 | 0.01 | 0.01 | 70 | 1016.8 |
| 20260508115006 | 51 | 316 | 4.0 | 7.0 | 0.00 | 0.01 | 0.01 | 71 | 1017.0 |
| 20260508114503 | 51 | 181 | 1.0 | 1.0 | 0.00 | 0.01 | 0.01 | 72 | 1017.0 |
| 20260508113959 | 51 | 196 | 1.0 | 1.0 | 0.00 | 0.01 | 0.01 | 72 | 1016.7 |
| 20260508113457 | 51 | 184 | 0.0 | 0.0 | 0.00 | 0.01 | 0.01 | 74 | 1016.8 |
| 20260508112954 | 50 | 173 | 0.0 | 1.0 | 0.00 | 0.01 | 0.01 | 75 | 1016.7 |
| 20260508112451 | 50 | 177 | 0.0 | 0.0 | 0.00 | 0.01 | 0.01 | 76 | 1016.7 |
| 20260508111948 | 50 | 205 | 1.0 | 1.0 | 0.00 | 0.01 | 0.01 | 75 | 1016.8 |
| 20260508111445 | 49 | 143 | 1.0 | 1.0 | 0.00 | 0.01 | 0.01 | 78 | 1016.6 |
| 20260508110942 | 49 | 143 | 1.0 | 1.0 | 0.00 | 0.01 | 0.01 | 78 | 1016.6 |
| 20260508110440 | 48 | 16 | 2.0 | 2.0 | 0.00 | 0.01 | 0.01 | 80 | 1016.8 |
| 20260508105939 | 48 | 165 | 0.0 | 0.0 | 0.00 | 0.01 | 0.01 | 82 | 1016.8 |
| 20260508105436 | 48 | 182 | 0.0 | 0.0 | 0.00 | 0.01 | 0.01 | 82 | 1016.7 |
| 20260508104933 | 48 | 178 | 0.0 | 0.0 | 0.00 | 0.01 | 0.01 | 85 | 1016.7 |
| 20260508104431 | 47 | 178 | 0.0 | 0.0 | 0.00 | 0.01 | 0.01 | 87 | 1016.6 |
| 20260508103927 | 46 | 178 | 0.0 | 0.0 | 0.00 | 0.01 | 0.01 | 89 | 1016.6 |
| 20260508103424 | 45 | 180 | 0.0 | 0.0 | 0.00 | 0.01 | 0.01 | 90 | 1016.5 |
| 20260508102921 | 44 | 181 | 0.0 | 0.0 | 0.00 | 0.01 | 0.01 | 89 | 1016.4 |
| 20260508102420 | 44 | 181 | 0.0 | 0.0 | 0.00 | 0.01 | 0.01 | 88 | 1016.5 |
| 20260508101916 | 44 | 181 | 0.0 | 0.0 | 0.00 | 0.01 | 0.01 | 88 | 1016.4 |
| 20260508101414 | 44 | 181 | 0.0 | 0.0 | 0.00 | 0.01 | 0.01 | 88 | 1016.5 |
| 20260508100911 | 44 | 205 | 0.0 | 0.0 | 0.00 | 0.01 | 0.01 | 87 | 1016.3 |
| 20260508100410 | 44 | 205 | 0.0 | 0.0 | 0.00 | 0.01 | 0.01 | 87 | 1016.4 |
| 20260508095905 | 45 | 205 | 0.0 | 0.0 | 0.00 | 0.01 | 0.01 | 86 | 1016.3 |
| 20260508095403 | 45 | 205 | 0.0 | 0.0 | 0.00 | 0.01 | 0.01 | 86 | 1016.2 |
| 20260508094859 | 45 | 205 | 0.0 | 0.0 | 0.00 | 0.01 | 0.01 | 85 | 1016.0 |
| 20260508094356 | 45 | 205 | 0.0 | 0.0 | 0.00 | 0.01 | 0.01 | 85 | 1016.2 |
| 20260508093853 | 46 | 205 | 0.0 | 0.0 | 0.00 | 0.01 | 0.01 | 84 | 1016.2 |
| 20260508093351 | 46 | 205 | 0.0 | 0.0 | 0.00 | 0.01 | 0.01 | 84 | 1016.3 |
| 20260508092848 | 46 | 215 | 0.0 | 1.0 | 0.00 | 0.01 | 0.01 | 83 | 1016.1 |
| 20260508092346 | 46 | 222 | 0.0 | 1.0 | 0.00 | 0.01 | 0.01 | 83 | 1016.1 |
| 20260508091844 | 46 | 263 | 1.0 | 2.0 | 0.00 | 0.01 | 0.01 | 83 | 1016.0 |
| 20260508091340 | 46 | 214 | 1.0 | 1.0 | 0.00 | 0.01 | 0.01 | 83 | 1016.0 |
| 20260508090838 | 46 | 214 | 1.0 | 2.0 | 0.00 | 0.01 | 0.01 | 83 | 1015.9 |
| 20260508090337 | 46 | 187 | 0.0 | 0.0 | 0.00 | 0.01 | 0.01 | 83 | 1016.1 |
| 20260508085832 | 46 | 233 | 1.0 | 1.0 | 0.00 | 0.01 | 0.01 | 83 | 1016.0 |
| 20260508085329 | 46 | 191 | 0.0 | 0.0 | 0.00 | 0.01 | 0.01 | 83 | 1015.9 |
| 20260508084825 | 46 | 245 | 1.0 | 1.0 | 0.00 | 0.01 | 0.01 | 83 | 1015.8 |
| 20260508084323 | 46 | 191 | 1.0 | 1.0 | 0.00 | 0.01 | 0.01 | 84 | 1015.9 |
| 20260508083820 | 46 | 285 | 0.0 | 1.0 | 0.00 | 0.01 | 0.01 | 84 | 1015.7 |
| 20260508083317 | 46 | 193 | 0.0 | 0.0 | 0.00 | 0.01 | 0.01 | 84 | 1015.7 |
| 20260508082817 | 46 | 86 | 0.0 | 1.0 | 0.00 | 0.01 | 0.01 | 84 | 1015.6 |
| 20260508082315 | 46 | 345 | 0.0 | 1.0 | 0.00 | 0.01 | 0.01 | 84 | 1015.6 |
| 20260508081812 | 46 | 57 | 1.0 | 2.0 | 0.00 | 0.01 | 0.01 | 84 | 1015.6 |
| 20260508081309 | 46 | 291 | 1.0 | 2.0 | 0.00 | 0.01 | 0.01 | 84 | 1015.5 |
| 20260508080806 | 46 | 143 | 0.0 | 0.0 | 0.00 | 0.01 | 0.01 | 83 | 1015.7 |
| 20260508080304 | 46 | 275 | 1.0 | 1.0 | 0.00 | 0.01 | 0.01 | 83 | 1015.8 |
| 20260508075800 | 46 | 2 | 2.0 | 2.0 | 0.00 | 0.01 | 0.01 | 83 | 1015.6 |
| 20260508075257 | 46 | 165 | 0.0 | 0.0 | 0.00 | 0.01 | 0.01 | 83 | 1015.8 |
| 20260508074755 | 46 | 275 | 1.0 | 1.0 | 0.00 | 0.01 | 0.01 | 83 | 1015.9 |
| 20260508074252 | 46 | 349 | 1.0 | 2.0 | 0.00 | 0.01 | 0.01 | 83 | 1016.1 |
| 20260508073749 | 46 | 167 | 2.0 | 2.0 | 0.00 | 0.01 | 0.01 | 83 | 1015.9 |
| 20260508073247 | 46 | 347 | 2.0 | 2.0 | 0.00 | 0.01 | 0.01 | 82 | 1016.0 |
| 20260508072742 | 46 | 26 | 3.0 | 3.0 | 0.00 | 0.01 | 0.01 | 83 | 1015.9 |
| 20260508072240 | 46 | 339 | 3.0 | 3.0 | 0.00 | 0.01 | 0.01 | 83 | 1016.0 |
| 20260508071737 | 46 | 143 | 1.0 | 1.0 | 0.00 | 0.01 | 0.01 | 83 | 1015.9 |
| 20260508071235 | 46 | 290 | 2.0 | 2.0 | 0.00 | 0.01 | 0.01 | 83 | 1016.0 |
| 20260508070732 | 45 | 62 | 1.0 | 2.0 | 0.00 | 0.01 | 0.01 | 83 | 1016.2 |
| 20260508070231 | 45 | 272 | 0.0 | 1.0 | 0.00 | 0.01 | 0.01 | 83 | 1016.3 |
| 20260508065727 | 46 | 344 | 1.0 | 2.0 | 0.00 | 0.01 | 0.01 | 82 | 1016.2 |
| 20260508065226 | 46 | 141 | 0.0 | 1.0 | 0.00 | 0.01 | 0.01 | 81 | 1016.3 |
| 20260508064723 | 46 | 336 | 1.0 | 2.0 | 0.00 | 0.01 | 0.01 | 80 | 1016.3 |
| 20260508064221 | 46 | 143 | 2.0 | 3.0 | 0.05 | 0.01 | 0.01 | 79 | 1016.4 |
| 20260508063718 | 47 | 307 | 2.0 | 3.0 | 0.05 | 0.01 | 0.01 | 77 | 1016.3 |
| 20260508063216 | 48 | 2 | 3.0 | 4.0 | 0.00 | 0.00 | 0.00 | 73 | 1016.4 |
| 20260508062713 | 50 | 321 | 6.0 | 8.0 | 0.00 | 0.00 | 0.00 | 65 | 1016.3 |
| 20260508062210 | 51 | 29 | 3.0 | 3.0 | 0.00 | 0.00 | 0.00 | 53 | 1015.8 |
| 20260508061707 | 50 | 120 | 1.0 | 1.0 | 0.00 | 0.00 | 0.00 | 53 | 1015.7 |
| 20260508061205 | 50 | 147 | 1.0 | 1.0 | 0.00 | 0.00 | 0.00 | 54 | 1015.6 |
| 20260508060702 | 49 | 284 | 1.0 | 2.0 | 0.00 | 0.00 | 0.00 | 59 | 1015.4 |
| 20260508060159 | 48 | 244 | 1.0 | 2.0 | 0.00 | 0.00 | 0.00 | 65 | 1014.9 |
| 20260508055654 | 48 | 185 | 0.0 | 1.0 | 0.00 | 0.00 | 0.00 | 67 | 1014.3 |
| 20260508055151 | 48 | 184 | 0.0 | 0.0 | 0.00 | 0.00 | 0.00 | 66 | 1013.9 |
| 20260508054647 | 48 | 184 | 0.0 | 0.0 | 0.00 | 0.00 | 0.00 | 65 | 1014.1 |
| 20260508054145 | 48 | 184 | 0.0 | 0.0 | 0.00 | 0.00 | 0.00 | 65 | 1013.9 |
| 20260508053642 | 47 | 247 | 0.0 | 0.0 | 0.00 | 0.00 | 0.00 | 66 | 1014.0 |
| 20260508053140 | 47 | 248 | 0.0 | 0.0 | 0.00 | 0.00 | 0.00 | 67 | 1014.1 |
| 20260508052637 | 47 | 249 | 0.0 | 0.0 | 0.00 | 0.00 | 0.00 | 67 | 1014.0 |
| 20260508052134 | 47 | 250 | 0.0 | 0.0 | 0.00 | 0.00 | 0.00 | 68 | 1013.8 |
| 20260508051630 | 47 | 275 | 0.0 | 0.0 | 0.00 | 0.00 | 0.00 | 70 | 1013.8 |
| 20260508051125 | 47 | 276 | 0.0 | 0.0 | 0.00 | 0.00 | 0.00 | 71 | 1014.1 |
| 20260508050621 | 46 | 276 | 0.0 | 0.0 | 0.00 | 0.00 | 0.00 | 72 | 1014.2 |
| 20260508050120 | 46 | 276 | 0.0 | 0.0 | 0.00 | 0.00 | 0.00 | 72 | 1014.0 |
| 20260508045615 | 46 | 276 | 0.0 | 0.0 | 0.00 | 0.00 | 0.00 | 71 | 1014.1 |
| 20260508045113 | 46 | 276 | 0.0 | 0.0 | 0.00 | 0.00 | 0.00 | 70 | 1014.1 |
| 20260508044610 | 46 | 276 | 0.0 | 0.0 | 0.00 | 0.00 | 0.00 | 68 | 1014.0 |
| 20260508044106 | 46 | 276 | 0.0 | 0.0 | 0.00 | 0.00 | 0.00 | 68 | 1013.9 |
| 20260508043603 | 46 | 276 | 0.0 | 0.0 | 0.00 | 0.00 | 0.00 | 68 | 1013.9 |
| 20260508043101 | 46 | 276 | 0.0 | 0.0 | 0.00 | 0.00 | 0.00 | 68 | 1014.0 |
| 20260508042557 | 46 | 276 | 0.0 | 0.0 | 0.00 | 0.00 | 0.00 | 68 | 1013.9 |
| 20260508042054 | 46 | 276 | 0.0 | 0.0 | 0.00 | 0.00 | 0.00 | 68 | 1013.8 |
| 20260508041550 | 47 | 276 | 0.0 | 0.0 | 0.00 | 0.00 | 0.00 | 68 | 1013.9 |
| 20260508041047 | 47 | 276 | 0.0 | 0.0 | 0.00 | 0.00 | 0.00 | 68 | 1013.9 |
| 20260508040544 | 46 | 276 | 0.0 | 0.0 | 0.00 | 0.00 | 0.00 | 69 | 1013.9 |
| 20260508040042 | 46 | 276 | 0.0 | 0.0 | 0.00 | 0.16 | 0.16 | 71 | 1013.8 |
| 20260508035538 | 46 | 276 | 0.0 | 0.0 | 0.00 | 0.16 | 0.16 | 71 | 1013.9 |
| 20260508035036 | 45 | 276 | 0.0 | 0.0 | 0.00 | 0.16 | 0.16 | 75 | 1014.1 |
| 20260508034532 | 44 | 289 | 0.0 | 0.0 | 0.00 | 0.16 | 0.16 | 78 | 1014.0 |
| 20260508034029 | 44 | 289 | 0.0 | 0.0 | 0.00 | 0.16 | 0.16 | 79 | 1014.0 |
| 20260508033527 | 44 | 289 | 0.0 | 0.0 | 0.00 | 0.16 | 0.16 | 79 | 1014.0 |
| 20260508033025 | 44 | 289 | 0.0 | 0.0 | 0.00 | 0.16 | 0.16 | 79 | 1013.9 |
| 20260508032521 | 44 | 289 | 0.0 | 0.0 | 0.00 | 0.16 | 0.16 | 79 | 1014.1 |
| 20260508032019 | 44 | 289 | 0.0 | 0.0 | 0.00 | 0.16 | 0.16 | 79 | 1013.9 |
| 20260508031516 | 44 | 289 | 0.0 | 0.0 | 0.00 | 0.16 | 0.16 | 78 | 1013.8 |
| 20260508031011 | 45 | 289 | 0.0 | 0.0 | 0.00 | 0.16 | 0.16 | 78 | 1013.8 |
| 20260508030509 | 45 | 289 | 0.0 | 0.0 | 0.00 | 0.16 | 0.16 | 78 | 1013.8 |
| 20260508030007 | 45 | 289 | 0.0 | 0.0 | 0.00 | 0.16 | 0.16 | 78 | 1013.9 |
| 20260508025502 | 45 | 289 | 0.0 | 0.0 | 0.00 | 0.16 | 0.16 | 78 | 1014.0 |
| 20260508025000 | 45 | 289 | 0.0 | 0.0 | 0.00 | 0.16 | 0.16 | 77 | 1014.0 |
| 20260508024455 | 45 | 289 | 0.0 | 0.0 | 0.00 | 0.16 | 0.16 | 77 | 1013.9 |
| 20260508023952 | 45 | 289 | 0.0 | 0.0 | 0.00 | 0.16 | 0.16 | 76 | 1013.9 |
| 20260508023449 | 46 | 289 | 0.0 | 0.0 | 0.00 | 0.16 | 0.16 | 76 | 1013.9 |
| 20260508022947 | 46 | 289 | 0.0 | 0.0 | 0.00 | 0.16 | 0.16 | 75 | 1013.9 |
| 20260508022442 | 47 | 289 | 0.0 | 0.0 | 0.00 | 0.16 | 0.16 | 74 | 1014.0 |
| 20260508021939 | 47 | 289 | 0.0 | 0.0 | 0.00 | 0.16 | 0.16 | 74 | 1013.8 |
| 20260508021435 | 47 | 289 | 0.0 | 0.0 | 0.00 | 0.16 | 0.16 | 73 | 1013.8 |
| 20260508020931 | 48 | 289 | 0.0 | 0.0 | 0.00 | 0.16 | 0.16 | 73 | 1013.9 |
| 20260508020429 | 48 | 289 | 0.0 | 0.0 | 0.00 | 0.16 | 0.16 | 73 | 1013.8 |
| 20260508015926 | 48 | 289 | 0.0 | 0.0 | 0.00 | 0.16 | 0.16 | 72 | 1013.7 |
| 20260508015424 | 48 | 289 | 0.0 | 0.0 | 0.00 | 0.16 | 0.16 | 72 | 1013.8 |
| 20260508014920 | 48 | 289 | 0.0 | 0.0 | 0.00 | 0.16 | 0.16 | 71 | 1014.0 |
| 20260508014417 | 48 | 289 | 0.0 | 0.0 | 0.00 | 0.16 | 0.16 | 70 | 1013.8 |
| 20260508013912 | 49 | 289 | 0.0 | 0.0 | 0.00 | 0.16 | 0.16 | 70 | 1013.9 |
| 20260508013409 | 49 | 289 | 0.0 | 0.0 | 0.00 | 0.16 | 0.16 | 68 | 1013.8 |
| 20260508012906 | 49 | 289 | 0.0 | 0.0 | 0.00 | 0.16 | 0.16 | 68 | 1013.7 |
| 20260508012403 | 50 | 289 | 0.0 | 0.0 | 0.00 | 0.16 | 0.16 | 67 | 1013.7 |
| 20260508011901 | 50 | 289 | 0.0 | 0.0 | 0.00 | 0.16 | 0.16 | 64 | 1013.5 |
| 20260508011359 | 50 | 289 | 0.0 | 0.0 | 0.00 | 0.16 | 0.16 | 63 | 1013.7 |
| 20260508010855 | 51 | 289 | 0.0 | 0.0 | 0.00 | 0.16 | 0.16 | 63 | 1013.7 |
| 20260508010353 | 51 | 289 | 0.0 | 0.0 | 0.00 | 0.16 | 0.16 | 63 | 1013.6 |
| 20260508005850 | 51 | 289 | 0.0 | 0.0 | 0.00 | 0.16 | 0.16 | 61 | 1013.5 |
| 20260508005346 | 52 | 289 | 0.0 | 0.0 | 0.00 | 0.16 | 0.16 | 60 | 1013.4 |
| 20260508004843 | 52 | 289 | 0.0 | 0.0 | 0.00 | 0.16 | 0.16 | 60 | 1013.6 |
| 20260508004339 | 52 | 289 | 0.0 | 0.0 | 0.00 | 0.16 | 0.16 | 59 | 1013.3 |
| 20260508003836 | 53 | 289 | 0.0 | 0.0 | 0.00 | 0.16 | 0.16 | 57 | 1013.3 |
| 20260508003333 | 53 | 289 | 0.0 | 0.0 | 0.00 | 0.16 | 0.16 | 55 | 1013.1 |
| 20260508002830 | 54 | 289 | 0.0 | 0.0 | 0.00 | 0.16 | 0.16 | 54 | 1013.0 |
| 20260508002326 | 54 | 289 | 0.0 | 0.0 | 0.00 | 0.16 | 0.16 | 53 | 1013.0 |
| 20260508001822 | 54 | 289 | 0.0 | 0.0 | 0.00 | 0.16 | 0.16 | 52 | 1013.0 |
| 20260508001319 | 55 | 289 | 0.0 | 0.0 | 0.00 | 0.16 | 0.16 | 48 | 1012.8 |
| 20260508000815 | 56 | 289 | 0.0 | 0.0 | 0.00 | 0.16 | 0.16 | 46 | 1012.8 |
| 20260508000312 | 57 | 289 | 0.0 | 0.0 | 0.00 | 0.16 | 0.16 | 45 | 1012.8 |
| 20260507235808 | 57 | 289 | 0.0 | 0.0 | 0.00 | 0.16 | 0.16 | 44 | 1012.8 |
| 20260507235307 | 59 | 288 | 1.0 | 1.0 | 0.00 | 0.16 | 0.16 | 41 | 1012.8 |
| 20260507234803 | 59 | 288 | 1.0 | 1.0 | 0.00 | 0.16 | 0.16 | 41 | 1012.8 |
| 20260507234259 | 59 | 318 | 1.0 | 2.0 | 0.00 | 0.16 | 0.16 | 40 | 1012.7 |
| 20260507233755 | 59 | 321 | 1.0 | 2.0 | 0.00 | 0.16 | 0.16 | 40 | 1012.5 |
| 20260507233254 | 59 | 347 | 2.0 | 2.0 | 0.00 | 0.16 | 0.16 | 41 | 1012.6 |
| 20260507232751 | 60 | 293 | 2.0 | 3.0 | 0.00 | 0.16 | 0.16 | 39 | 1012.4 |
| 20260507232248 | 60 | 293 | 2.0 | 3.0 | 0.00 | 0.16 | 0.16 | 39 | 1012.4 |
| 20260507231744 | 60 | 6 | 3.0 | 4.0 | 0.00 | 0.16 | 0.16 | 39 | 1012.5 |
| 20260507231241 | 61 | 325 | 2.0 | 3.0 | 0.00 | 0.16 | 0.16 | 39 | 1012.4 |
| 20260507230738 | 61 | 275 | 1.0 | 1.0 | 0.00 | 0.16 | 0.16 | 39 | 1012.5 |
| 20260507230235 | 62 | 314 | 1.0 | 2.0 | 0.00 | 0.16 | 0.16 | 38 | 1012.4 |
| 20260507225735 | 62 | 266 | 2.0 | 2.0 | 0.00 | 0.16 | 0.16 | 37 | 1012.3 |
| 20260507225231 | 62 | 13 | 5.0 | 8.0 | 0.00 | 0.16 | 0.16 | 36 | 1012.3 |
| 20260507224727 | 63 | 323 | 2.0 | 3.0 | 0.00 | 0.16 | 0.16 | 38 | 1012.2 |
| 20260507224224 | 63 | 181 | 1.0 | 1.0 | 0.00 | 0.16 | 0.16 | 38 | 1012.3 |
| 20260507223720 | 63 | 344 | 7.0 | 9.0 | 0.00 | 0.16 | 0.16 | 36 | 1012.1 |
| 20260507223217 | 63 | 327 | 2.0 | 4.0 | 0.00 | 0.16 | 0.16 | 37 | 1012.2 |
| 20260507222714 | 63 | 243 | 2.0 | 2.0 | 0.00 | 0.16 | 0.16 | 38 | 1012.2 |
| 20260507222210 | 63 | 328 | 3.0 | 4.0 | 0.00 | 0.16 | 0.16 | 36 | 1012.1 |
| 20260507221707 | 63 | 188 | 5.0 | 8.0 | 0.00 | 0.16 | 0.16 | 36 | 1012.3 |
| 20260507221203 | 63 | 26 | 3.0 | 3.0 | 0.00 | 0.16 | 0.16 | 38 | 1012.4 |
| 20260507220700 | 63 | 356 | 6.0 | 10.0 | 0.00 | 0.16 | 0.16 | 37 | 1012.2 |
| 20260507220158 | 63 | 276 | 3.0 | 3.0 | 0.00 | 0.16 | 0.16 | 37 | 1012.3 |
| 20260507215654 | 63 | 289 | 1.0 | 1.0 | 0.00 | 0.16 | 0.16 | 37 | 1012.4 |
| 20260507215152 | 64 | 339 | 5.0 | 6.0 | 0.00 | 0.16 | 0.16 | 36 | 1012.3 |
| 20260507214649 | 64 | 200 | 2.0 | 3.0 | 0.00 | 0.16 | 0.16 | 36 | 1012.2 |
| 20260507214145 | 64 | 255 | 1.0 | 1.0 | 0.00 | 0.16 | 0.16 | 38 | 1012.1 |
| 20260507213641 | 64 | 303 | 2.0 | 3.0 | 0.00 | 0.16 | 0.16 | 37 | 1012.0 |
| 20260507213139 | 64 | 1 | 2.0 | 3.0 | 0.00 | 0.16 | 0.16 | 37 | 1012.1 |
| 20260507212634 | 64 | 30 | 4.0 | 6.0 | 0.00 | 0.16 | 0.16 | 35 | 1012.0 |
| 20260507212131 | 64 | 190 | 1.0 | 2.0 | 0.00 | 0.16 | 0.16 | 38 | 1011.9 |
| 20260507211628 | 64 | 12 | 4.0 | 6.0 | 0.00 | 0.16 | 0.16 | 36 | 1012.0 |
| 20260507211124 | 64 | 42 | 2.0 | 3.0 | 0.00 | 0.16 | 0.16 | 38 | 1011.9 |
| 20260507210622 | 65 | 342 | 5.0 | 6.0 | 0.00 | 0.16 | 0.16 | 37 | 1011.9 |
| 20260507210118 | 64 | 355 | 5.0 | 7.0 | 0.00 | 0.16 | 0.16 | 36 | 1012.0 |
| 20260507205615 | 65 | 252 | 5.0 | 9.0 | 0.00 | 0.16 | 0.16 | 36 | 1012.0 |
| 20260507205111 | 64 | 343 | 1.0 | 2.0 | 0.00 | 0.16 | 0.16 | 38 | 1012.0 |
| 20260507204608 | 65 | 16 | 3.0 | 6.0 | 0.00 | 0.16 | 0.16 | 37 | 1011.9 |
| 20260507204105 | 65 | 235 | 1.0 | 1.0 | 0.00 | 0.16 | 0.16 | 38 | 1011.8 |
| 20260507203603 | 65 | 344 | 4.0 | 6.0 | 0.00 | 0.16 | 0.16 | 37 | 1012.0 |
| 20260507203100 | 64 | 8 | 2.0 | 2.0 | 0.00 | 0.16 | 0.16 | 39 | 1011.9 |
| 20260507202556 | 64 | 253 | 6.0 | 7.0 | 0.00 | 0.16 | 0.16 | 38 | 1012.0 |
| 20260507202052 | 64 | 232 | 5.0 | 8.0 | 0.00 | 0.16 | 0.16 | 37 | 1011.9 |
| 20260507201547 | 65 | 303 | 2.0 | 3.0 | 0.00 | 0.16 | 0.16 | 38 | 1011.9 |
| 20260507201044 | 63 | 322 | 2.0 | 3.0 | 0.00 | 0.16 | 0.16 | 37 | 1011.9 |
| 20260507200540 | 64 | 1 | 4.0 | 6.0 | 0.00 | 0.16 | 0.16 | 37 | 1012.1 |
| 20260507200036 | 64 | 225 | 1.0 | 2.0 | 0.00 | 0.16 | 0.16 | 37 | 1011.9 |
| 20260507195534 | 64 | 78 | 4.0 | 6.0 | 0.00 | 0.16 | 0.16 | 36 | 1012.0 |
| 20260507195031 | 64 | 14 | 4.0 | 4.0 | 0.00 | 0.16 | 0.16 | 36 | 1012.0 |
| 20260507194527 | 65 | 334 | 5.0 | 8.0 | 0.00 | 0.16 | 0.16 | 35 | 1012.2 |
| 20260507194023 | 64 | 302 | 3.0 | 4.0 | 0.00 | 0.16 | 0.16 | 37 | 1012.2 |
| 20260507193520 | 64 | 339 | 4.0 | 4.0 | 0.00 | 0.16 | 0.16 | 37 | 1012.1 |
| 20260507193018 | 64 | 200 | 3.0 | 3.0 | 0.00 | 0.16 | 0.16 | 39 | 1012.1 |
| 20260507192513 | 63 | 279 | 2.0 | 3.0 | 0.00 | 0.16 | 0.16 | 38 | 1012.3 |
| 20260507192011 | 64 | 332 | 5.0 | 7.0 | 0.00 | 0.16 | 0.16 | 37 | 1012.3 |
| 20260507191506 | 63 | 258 | 5.0 | 7.0 | 0.00 | 0.16 | 0.16 | 38 | 1012.7 |
| 20260507191003 | 63 | 334 | 4.0 | 8.0 | 0.00 | 0.16 | 0.16 | 37 | 1012.6 |
| 20260507190500 | 64 | 106 | 2.0 | 3.0 | 0.00 | 0.16 | 0.16 | 39 | 1012.7 |
| 20260507185959 | 64 | 293 | 2.0 | 3.0 | 0.00 | 0.16 | 0.16 | 38 | 1012.6 |
| 20260507185456 | 63 | 320 | 6.0 | 8.0 | 0.00 | 0.16 | 0.16 | 39 | 1012.6 |
| 20260507184953 | 63 | 280 | 5.0 | 8.0 | 0.00 | 0.16 | 0.16 | 37 | 1012.8 |
| 20260507184451 | 63 | 230 | 2.0 | 3.0 | 0.00 | 0.16 | 0.16 | 37 | 1013.0 |
| 20260507183949 | 63 | 259 | 2.0 | 3.0 | 0.00 | 0.16 | 0.16 | 40 | 1012.7 |
| 20260507183445 | 64 | 21 | 3.0 | 4.0 | 0.00 | 0.16 | 0.16 | 40 | 1013.0 |
| 20260507182942 | 63 | 226 | 2.0 | 3.0 | 0.00 | 0.16 | 0.16 | 39 | 1013.0 |
| 20260507182438 | 63 | 190 | 1.0 | 1.0 | 0.00 | 0.16 | 0.16 | 40 | 1013.2 |
| 20260507181934 | 62 | 223 | 1.0 | 1.0 | 0.00 | 0.16 | 0.16 | 42 | 1013.0 |
| 20260507181430 | 63 | 324 | 5.0 | 6.0 | 0.00 | 0.16 | 0.16 | 38 | 1013.0 |
| 20260507180927 | 62 | 210 | 2.0 | 3.0 | 0.00 | 0.16 | 0.16 | 38 | 1013.2 |
| 20260507180424 | 62 | 7 | 1.0 | 1.0 | 0.00 | 0.16 | 0.16 | 40 | 1013.2 |
| 20260507175920 | 62 | 289 | 5.0 | 6.0 | 0.00 | 0.16 | 0.16 | 39 | 1013.3 |
| 20260507175417 | 63 | 224 | 3.0 | 4.0 | 0.00 | 0.16 | 0.16 | 40 | 1013.3 |
| 20260507174915 | 62 | 292 | 2.0 | 3.0 | 0.00 | 0.16 | 0.16 | 39 | 1013.4 |
| 20260507174412 | 61 | 92 | 1.0 | 1.0 | 0.00 | 0.16 | 0.16 | 44 | 1013.4 |